FW6490 Weather Reports


time (UTC)temp
C
wind
direction
speed
KPH
gust
KPH
rain 1hr
cm
rain 24hr
cm
rain mn
cm
humidity
%
barometer
mb
20260831170236 15 271 1.6 6.4 0.00 0.00 0.00 80 1010.2
20260831165740 15 271 1.6 8.0 0.00 0.00 0.00 80 1010.1
20260831165234 15 271 3.2 8.0 0.00 0.00 0.00 80 1010.1
20260831164232 15 271 1.6 6.4 0.00 0.00 0.00 80 1010.1
20260831163732 15 271 0.0 4.8 0.00 0.00 0.00 81 1010.1
20260831163232 15 271 0.0 3.2 0.00 0.00 0.00 81 1010.1
20260831162728 15 271 1.6 8.0 0.00 0.00 0.00 81 1010.0
20260831162232 15 271 3.2 8.0 0.00 0.00 0.00 81 1010.0
20260831161728 15 271 1.6 6.4 0.00 0.00 0.00 81 1010.0
20260831161222 15 271 0.0 6.4 0.00 0.00 0.00 82 1009.9
20260831160720 14 271 0.0 0.0 0.00 0.00 0.00 82 1009.9
20260831160219 14 271 0.0 0.0 0.00 0.00 0.00 82 1009.9
20260831155214 14 271 0.0 0.0 0.00 0.00 0.00 83 1009.7
20260831154710 14 271 0.0 0.0 0.00 0.00 0.00 84 1009.7
20260831154206 14 271 0.0 0.0 0.00 0.00 0.00 84 1009.7
20260831153709 14 271 0.0 0.0 0.00 0.00 0.00 84 1009.7
20260831153206 14 271 0.0 0.0 0.00 0.00 0.00 85 1009.7
20260831152659 14 271 0.0 0.0 0.00 0.00 0.00 84 1009.7
20260831152157 13 271 0.0 0.0 0.00 0.00 0.00 84 1009.7
20260831151655 13 271 0.0 0.0 0.00 0.00 0.00 85 1009.7
20260831151149 13 271 0.0 0.0 0.00 0.00 0.00 85 1009.6
20260831150645 13 271 0.0 0.0 0.00 0.00 0.00 85 1009.6
20260831150144 13 271 0.0 0.0 0.00 0.00 0.00 85 1009.6
20260831145145 13 271 0.0 3.2 0.00 0.00 0.00 85 1009.6
20260831144638 13 271 1.6 4.8 0.00 0.00 0.00 85 1009.6
20260831143638 13 271 1.6 4.8 0.00 0.00 0.00 85 1009.4
20260831142636 13 271 1.6 6.4 0.00 0.00 0.00 86 1009.3
20260831141632 13 271 1.6 6.4 0.00 0.00 0.00 86 1009.3
20260831141129 13 271 1.6 6.4 0.00 0.00 0.00 86 1009.0
20260831140630 13 271 1.6 4.8 0.00 0.00 0.00 86 1009.0
20260831140127 13 271 1.6 4.8 0.00 0.00 0.00 86 1009.0
20260831135622 13 271 1.6 3.2 0.00 0.00 0.00 87 1008.4
20260831135120 13 271 0.0 3.2 0.00 0.00 0.00 87 1008.4
20260831134622 13 271 0.0 3.2 0.00 0.00 0.00 87 1008.4
20260831133617 13 271 0.0 3.2 0.00 0.00 0.00 87 1008.3
20260831133113 13 271 0.0 1.6 0.00 0.00 0.00 87 1008.3
20260831132610 13 271 0.0 1.6 0.00 0.00 0.00 87 1008.4
20260831131610 13 271 0.0 4.8 0.00 0.00 0.00 87 1008.4
20260831131108 13 271 0.0 0.0 0.00 0.00 0.00 87 1008.5
20260831130602 13 271 0.0 0.0 0.00 0.00 0.00 87 1008.5
20260831130100 13 271 0.0 0.0 0.00 0.00 0.00 87 1008.5
20260831125556 13 271 0.0 0.0 0.00 0.00 0.00 87 1008.5
20260831125059 13 271 0.0 0.0 0.00 0.00 0.00 86 1008.5
20260831124555 13 271 0.0 0.0 0.00 0.00 0.00 86 1008.5
20260831124055 13 271 0.0 0.0 0.00 0.00 0.00 86 1008.3
20260831123552 13 271 0.0 0.0 0.00 0.00 0.00 86 1008.3
20260831123050 13 271 0.0 0.0 0.00 0.00 0.00 86 1008.3
20260831122547 13 271 0.0 3.2 0.00 0.00 0.00 86 1008.0
20260831122048 13 271 1.6 3.2 0.00 0.00 0.00 87 1008.0
20260831121548 13 271 0.0 3.2 0.00 0.00 0.00 87 1008.0
20260831121053 13 271 0.0 1.6 0.00 0.00 0.00 87 1008.0
20260831120542 13 271 0.0 1.6 0.00 0.00 0.00 87 1008.0
20260831120037 14 271 0.0 3.2 0.00 0.00 0.00 86 1008.0
20260831115034 14 271 0.0 3.2 0.00 0.00 0.00 86 1008.1
20260831113524 14 271 0.0 3.2 0.00 0.00 0.00 86 1008.0
20260831113023 14 271 1.6 3.2 0.00 0.00 0.00 86 1008.0
20260831112525 14 271 0.0 3.2 0.00 0.00 0.00 86 1008.1
20260831112021 14 271 0.0 3.2 0.00 0.00 0.00 86 1008.1
20260831111518 14 271 0.0 3.2 0.00 0.00 0.00 86 1008.1
20260831110512 14 271 0.0 3.2 0.00 0.00 0.00 87 1008.1
20260831110012 14 271 0.0 1.6 0.00 0.00 0.00 87 1008.1
20260831105509 14 271 0.0 0.0 0.00 0.00 0.00 87 1008.2
20260831105010 14 271 0.0 0.0 0.00 0.00 0.00 87 1008.2
20260831104506 14 271 0.0 0.0 0.00 0.00 0.00 87 1008.2
20260831104002 14 271 0.0 3.2 0.00 0.00 0.00 87 1008.2
20260831103500 14 271 1.6 6.4 0.00 0.00 0.00 87 1008.2
20260831102955 14 271 1.6 6.4 0.00 0.00 0.00 87 1008.2
20260831102455 14 271 0.0 4.8 0.00 0.00 0.00 87 1008.1
20260831101956 14 271 0.0 0.0 0.00 0.00 0.00 87 1008.1
20260831101456 14 271 0.0 0.0 0.00 0.00 0.00 87 1008.1
20260831100951 14 271 0.0 0.0 0.00 0.00 0.00 87 1008.1
20260831100453 14 271 0.0 0.0 0.00 0.00 0.00 87 1008.1
20260831095948 14 271 0.0 0.0 0.00 0.00 0.00 86 1008.1
20260831095447 14 271 0.0 0.0 0.00 0.00 0.00 87 1008.2
20260831094947 14 271 0.0 0.0 0.00 0.00 0.00 87 1008.2
20260831094445 14 271 0.0 0.0 0.00 0.00 0.00 87 1008.2
20260831093438 14 271 0.0 3.2 0.00 0.00 0.00 87 1008.3
20260831092939 14 271 1.6 4.8 0.00 0.00 0.00 87 1008.3
20260831092435 14 271 1.6 6.4 0.00 0.00 0.00 87 1008.3
20260831091934 14 271 1.6 6.4 0.00 0.00 0.00 87 1008.3
20260831091434 14 271 1.6 4.8 0.00 0.00 0.00 87 1008.3
20260831090932 14 271 1.6 4.8 0.00 0.00 0.00 87 1008.3
20260831085926 14 271 0.0 4.8 0.00 0.00 0.00 87 1008.3
20260831085420 14 271 1.6 4.8 0.00 0.00 0.00 87 1008.4
20260831084922 14 271 1.6 6.4 0.00 0.00 0.00 87 1008.4
20260831084417 14 271 1.6 6.4 0.00 0.00 0.00 87 1008.4
20260831082914 14 271 3.2 6.4 0.00 0.00 0.00 88 1008.4
20260831082411 14 271 3.2 6.4 0.00 0.00 0.00 88 1008.5
20260831081911 14 271 3.2 6.4 0.00 0.00 0.00 88 1008.5
20260831081409 14 271 3.2 6.4 0.00 0.00 0.00 88 1008.5
20260831080913 14 271 1.6 6.4 0.00 0.00 0.00 88 1008.5
20260831080408 14 271 1.6 4.8 0.00 0.00 0.00 88 1008.5
20260831075908 14 271 1.6 6.4 0.00 0.00 0.00 88 1008.5
20260831075406 14 271 3.2 6.4 0.00 0.00 0.00 88 1008.5
20260831074908 14 271 1.6 4.8 0.00 0.00 0.00 88 1008.5
20260831074409 14 269 1.6 4.8 0.00 0.00 0.00 88 1008.5
20260831073405 14 269 1.6 6.4 0.00 0.00 0.00 88 1008.5
20260831072900 14 269 3.2 9.7 0.00 0.00 0.00 88 1008.5
20260831072400 14 268 3.2 9.7 0.00 0.00 0.00 89 1008.4
20260831071900 14 279 1.6 6.4 0.00 0.00 0.00 89 1008.4
20260831071400 14 273 1.6 6.4 0.00 0.00 0.00 89 1008.5
20260831070858 14 273 3.2 6.4 0.00 0.00 0.00 90 1008.5
20260831070352 14 273 3.2 9.7 0.00 0.00 0.00 90 1008.5
20260831065849 14 273 1.6 9.7 0.00 0.00 0.00 90 1008.4
20260831065346 14 325 1.6 4.8 0.00 0.00 0.00 90 1008.4
20260831064850 14 325 1.6 3.2 0.00 0.00 0.00 90 1008.4
20260831064422 14 325 1.6 6.4 0.00 0.00 0.00 90 1008.4
20260831063844 14 325 3.2 6.4 0.00 0.00 0.00 90 1008.4
20260831063338 14 325 3.2 6.4 0.00 0.00 0.00 90 1008.4
20260831062836 13 325 1.6 6.4 0.00 0.00 0.00 90 1008.5
20260831062337 13 325 0.0 4.8 0.00 0.00 0.00 90 1008.5
20260831061836 13 325 0.0 0.0 0.00 0.00 0.00 90 1008.5
20260831061325 13 325 0.0 0.0 0.00 0.00 0.00 90 1008.5
20260831060326 13 325 0.0 0.0 0.00 0.00 0.00 90 1008.5
20260831055819 13 325 0.0 0.0 0.00 0.00 0.00 90 1008.5
20260831055317 13 325 0.0 0.0 0.00 0.00 0.00 90 1008.5
20260831054813 13 325 0.0 0.0 0.00 0.00 0.00 90 1008.5
20260831054312 13 325 0.0 0.0 0.00 0.00 0.00 90 1008.5
20260831053811 13 325 0.0 6.4 0.00 0.00 0.00 90 1008.5
20260831053314 13 325 0.0 6.4 0.00 0.00 0.00 90 1008.5
20260831052811 14 325 0.0 0.0 0.00 0.00 0.00 90 1008.9
20260831052306 14 325 0.0 3.2 0.00 0.00 0.00 89 1008.9
20260831051257 14 325 1.6 3.2 0.00 0.00 0.00 89 1008.7
20260831050757 14 325 1.6 3.2 0.00 0.00 0.00 89 1008.7
20260831045756 14 325 0.0 3.2 0.00 0.00 0.00 88 1008.6
20260831045256 14 325 1.6 4.8 0.00 0.00 0.00 88 1008.6
20260831044755 14 325 1.6 4.8 0.00 0.00 0.00 88 1008.6
20260831044247 14 325 1.6 6.4 0.00 0.00 0.00 88 1008.5
20260831043746 15 325 1.6 6.4 0.00 0.00 0.00 88 1008.5
20260831043240 15 325 1.6 6.4 0.00 0.00 0.00 88 1008.5
20260831042738 15 325 0.0 4.8 0.00 0.00 0.00 87 1008.4
20260831042236 15 325 0.0 4.8 0.00 0.00 0.00 87 1008.4
20260831040730 15 325 1.6 4.8 0.00 0.00 0.00 87 1008.4
20260831040226 15 325 1.6 6.4 0.00 0.00 0.00 87 1008.4
20260831035725 15 325 3.2 6.4 0.00 0.00 0.00 87 1008.3
20260831035225 15 326 3.2 8.0 0.00 0.00 0.00 87 1008.3
20260831034725 15 319 4.8 11.3 0.00 0.00 0.00 86 1008.3
20260831033214 15 315 3.2 14.5 0.00 0.00 0.00 86 1008.0
20260831032214 15 319 3.2 11.3 0.00 0.00 0.00 87 1007.9
20260831031710 15 311 3.2 8.0 0.00 0.00 0.00 86 1007.9
20260831031207 15 311 3.2 6.4 0.00 0.00 0.00 86 1007.9
20260831030159 15 277 4.8 12.9 0.00 0.00 0.00 86 1007.9
20260831025654 15 294 4.8 9.7 0.00 0.00 0.00 86 1007.9
20260831025156 15 286 3.2 8.0 0.00 0.00 0.00 85 1007.9
20260831024654 15 265 3.2 8.0 0.00 0.00 0.00 85 1007.9
20260831024155 15 286 3.2 19.3 0.00 0.00 0.00 85 1007.9
20260831023652 15 286 4.8 19.3 0.00 0.00 0.00 84 1007.9
20260831023149 15 319 4.8 12.9 0.00 0.00 0.00 84 1007.9
20260831022648 16 309 3.2 8.0 0.00 0.00 0.00 83 1007.9
20260831022149 16 296 3.2 9.7 0.00 0.00 0.00 82 1007.9
20260831021646 16 304 3.2 9.7 0.00 0.00 0.00 82 1007.9
20260831021144 16 309 3.2 9.7 0.00 0.00 0.00 81 1007.9
20260831020639 16 260 3.2 9.7 0.00 0.00 0.00 81 1007.9
20260831020139 16 275 4.8 14.5 0.00 0.00 0.00 80 1007.9
20260831015637 16 274 6.4 14.5 0.00 0.00 0.00 80 1007.8
20260831015139 16 311 6.4 17.7 0.00 0.00 0.00 79 1007.8
20260831014135 17 244 6.4 16.1 0.00 0.00 0.00 77 1007.9
20260831013635 17 286 4.8 16.1 0.00 0.00 0.00 75 1007.9
20260831013130 17 283 4.8 12.9 0.00 0.00 0.00 74 1007.9
20260831012631 18 316 4.8 11.3 0.00 0.00 0.00 73 1008.0
20260831012128 18 304 4.8 9.7 0.00 0.00 0.00 72 1008.0
20260831011625 19 309 6.4 12.9 0.00 0.00 0.00 72 1008.0
20260831011124 19 310 8.0 16.1 0.00 0.00 0.00 71 1008.0
20260831010625 19 321 6.4 16.1 0.00 0.00 0.00 70 1008.0
20260831010122 19 306 6.4 11.3 0.00 0.00 0.00 70 1008.0
20260831005621 19 327 6.4 14.5 0.00 0.00 0.00 70 1007.9
20260831004622 20 294 6.4 16.1 0.00 0.00 0.00 69 1007.9
20260831003616 20 323 8.0 19.3 0.00 0.00 0.00 68 1007.8
20260831003114 20 321 6.4 19.3 0.00 0.00 0.00 67 1007.8
20260831002109 20 304 8.0 16.1 0.00 0.00 0.00 67 1007.7
20260831001607 21 303 6.4 16.1 0.00 0.00 0.00 66 1007.7
20260831001107 21 351 6.4 12.9 0.00 0.00 0.00 66 1007.6
20260831000608 21 304 6.4 14.5 0.00 0.00 0.00 65 1007.6
20260831000111 21 340 6.4 14.5 0.00 0.00 0.00 65 1007.6
20260830235610 21 309 8.0 17.7 0.00 0.00 0.00 65 1007.6
20260830235105 21 300 6.4 17.7 0.00 0.00 0.00 65 1007.6
20260830234104 21 331 8.0 17.7 0.00 0.00 0.00 65 1007.7
20260830233100 21 315 9.7 19.3 0.00 0.00 0.00 65 1007.7
20260830232559 21 18 8.0 17.7 0.00 0.00 0.00 64 1007.9
20260830231556 21 323 8.0 17.7 0.00 0.00 0.00 63 1008.0
20260830231054 22 311 8.0 17.7 0.00 0.00 0.00 63 1008.1
20260830230552 22 321 8.0 17.7 0.00 0.00 0.00 63 1008.1
20260830230049 22 315 8.0 14.5 0.00 0.00 0.00 62 1008.1
20260830225546 22 315 6.4 16.1 0.00 0.00 0.00 61 1008.1
20260830225048 22 332 6.4 16.1 0.00 0.00 0.00 61 1008.1
20260830224546 22 309 6.4 14.5 0.00 0.00 0.00 61 1008.1
20260830223543 22 324 6.4 16.1 0.00 0.00 0.00 61 1008.2
20260830223039 22 344 6.4 16.1 0.00 0.00 0.00 61 1008.2
20260830222036 22 328 6.4 14.5 0.00 0.00 0.00 61 1008.2
20260830221536 22 302 8.0 14.5 0.00 0.00 0.00 61 1008.2
20260830220536 22 277 8.0 16.1 0.00 0.00 0.00 61 1008.3
20260830220038 23 318 6.4 16.1 0.00 0.00 0.00 60 1008.3
20260830215536 23 334 6.4 16.1 0.00 0.00 0.00 60 1008.6
20260830215034 22 273 8.0 14.5 0.00 0.00 0.00 61 1008.6
20260830214538 23 16 8.0 16.1 0.00 0.00 0.00 60 1008.6
20260830214037 23 295 6.4 16.1 0.00 0.00 0.00 61 1008.6
20260830213534 22 333 8.0 16.1 0.00 0.00 0.00 61 1008.6
20260830213036 22 317 8.0 17.7 0.00 0.00 0.00 62 1008.6
20260830212532 22 346 8.0 17.7 0.00 0.00 0.00 61 1008.7
20260830212032 22 25 8.0 17.7 0.00 0.00 0.00 61 1008.7
20260830211529 22 348 8.0 17.7 0.00 0.00 0.00 61 1008.7
20260830211028 22 323 8.0 16.1 0.00 0.00 0.00 61 1008.7
20260830210527 22 315 8.0 14.5 0.00 0.00 0.00 62 1008.7
20260830210026 22 319 8.0 16.1 0.00 0.00 0.00 62 1008.7
20260830205524 21 311 9.7 17.7 0.00 0.00 0.00 63 1008.6
20260830205022 22 292 8.0 17.7 0.00 0.00 0.00 63 1008.7
20260830204522 22 317 8.0 17.7 0.00 0.00 0.00 63 1008.7
20260830204022 22 321 8.0 17.7 0.00 0.00 0.00 61 1008.7
20260830203518 22 312 8.0 16.1 0.00 0.00 0.00 61 1008.7
20260830203016 22 323 6.4 16.1 0.00 0.00 0.00 61 1008.7
20260830202514 22 311 6.4 16.1 0.00 0.00 0.00 62 1008.6
20260830202015 22 316 8.0 20.9 0.00 0.00 0.00 63 1008.6
20260830201514 22 339 9.7 20.9 0.00 0.00 0.00 63 1008.6
20260830201010 21 307 9.7 16.1 0.00 0.00 0.00 64 1008.6
20260830200508 21 301 8.0 17.7 0.00 0.00 0.00 64 1008.6
20260830195506 22 323 8.0 16.1 0.00 0.00 0.00 64 1008.9
20260830194505 21 350 9.7 19.3 0.00 0.00 0.00 64 1008.7
20260830194004 21 5 9.7 19.3 0.00 0.00 0.00 65 1008.9
20260830193504 21 311 9.7 19.3 0.00 0.00 0.00 65 1008.9
20260830193004 21 306 9.7 19.3 0.00 0.00 0.00 65 1008.9
20260830192505 22 319 8.0 14.5 0.00 0.00 0.00 64 1009.0
20260830192004 21 319 6.4 12.9 0.00 0.00 0.00 65 1009.0
20260830191505 21 318 8.0 20.9 0.00 0.00 0.00 65 1009.0
20260830190503 21 355 8.0 16.1 0.00 0.00 0.00 66 1009.0
20260830190001 21 317 8.0 14.5 0.00 0.00 0.00 66 1009.0
20260830185504 21 313 8.0 16.1 0.00 0.00 0.00 67 1009.1
20260830184457 21 320 9.7 16.1 0.00 0.00 0.00 68 1009.1
20260830183956 21 291 8.0 16.1 0.00 0.00 0.00 66 1009.1
20260830183458 22 311 6.4 12.9 0.00 0.00 0.00 65 1009.1
20260830182955 22 342 4.8 12.9 0.00 0.00 0.00 65 1009.2
20260830182455 22 303 4.8 11.3 0.00 0.00 0.00 65 1009.2
20260830181450 21 77 0.0 8.0 0.00 0.00 0.00 67 1009.1
20260830180950 21 84 1.6 8.0 0.00 0.00 0.00 67 1009.1
20260830175947 20 47 3.2 8.0 0.00 0.00 0.00 71 1009.1
20260830175446 20 86 1.6 8.0 0.00 0.00 0.00 72 1009.0
20260830173936 19 83 1.6 8.0 0.00 0.00 0.00 74 1008.9
20260830173440 19 76 1.6 6.4 0.00 0.00 0.00 75 1008.9
20260830172936 18 90 0.0 6.4 0.00 0.00 0.00 76 1008.9
20260830171934 18 125 0.0 4.8 0.00 0.00 0.00 76 1008.9
20260830171430 18 126 0.0 4.8 0.00 0.00 0.00 78 1008.9
20260830170930 18 127 0.0 1.6 0.00 0.00 0.00 81 1008.6